DECAYED

STARLINK-1073, 44914 (Decayed)

Orbit data source: Space-Track

STARLINK-1073, 44914 was a payload satellite owned by SpaceX/Seattle (US) in LEO that was launched on Tue, 07 Jan 2020 UTC via an FALCON 9 launch vehicle from the Air Force Eastern Test Range (AFETR). Payload-class satellites include a variety of spacecraft equipped with specific instruments for various scientific and technological missions. These include communications satellites like Starlink; space stations such as the ISS; scientific satellites like the Hubble; Earth observation satellites from companies like Planet Labs, Umbra, and HawkEye 360; GPS; miniature CubeSats for education and research; and military/defense satellites.

Not visible in the next 10 days
Identifier
44914, 2020-001A
Orbit
Decayed
Country
Flag of USUS
Related business
Manufacturer
SpaceX/Seattle
Mission
Decayed Commercial Communications
Bus & Motor
STARLINK, Unknown motor
Mass
260 kg wet, ~248 kg dry
Launch date (UTC)
2020-01-07 (6 years ago)
Launch vehicle
FALCON 9
Launch site
Air Force Eastern Test Range (AFETR)
Object type
Payload
Rocket body
Debris
Shape & HBR
Box + 1 Pan, 10.1 m
Radar Cross Section
13.562 m², Large (>1 m²)

Expand to show TLE details & history
Last TLE update: 10 months ago

TLE from 10 months ago
0 STARLINK-1073
1 44914U 20001A   25112.42657796  .15995088  12617-4  21182-3 0  9995
2 44914  53.0208 279.7883 0008309 274.0092 183.1410 16.48760180292383
Epoch: 2025-04-22T10:14Z
TLE epoch observation values (Epoch: 2025-04-22T10:14:16.335Z)
Latitude
52.5925°
Longitude
17.27845°
Altitude
154.35 km
Speed
7.817 km/s
True Right ascension
01h 26m 17s
True Declination
52° 24' 40"
Sunlit
Object was in daylight at epoch
Visualization orbit readout
Latitude
Unknown
Longitude
Unknown
Altitude
Unknown
Speed
Unknown
Apparent Right ascension
Unknown
Apparent Declination
Unknown
Sunlit
N/A
Visualization observer readout
Local Sidereal Time
14:01:31
Azimuth
Unknown
Elevation
Unknown
Doppler factor
Unknown
Orbital elements
Apogee altitude
148.314 km
Perigee altitude
137.477 km
Semi-major axis
6,521.032 km
Eccentricity
0.00083
Inclination
53.0208°
RAAN
279.7883°
Arg. of periapsis
274.0092°
True anomaly
183.13579°
Mean anomaly
183.141°
Eccentric anomaly
183.13839°
Mean motion
4.12163 °/min
Orbital period
87.34 mins
BSTAR
0.00021182
Loading maneuver chart data...
Computing Atmospheric mass density...

Documentation

Showing up to 5 results
|